#timestamp,LO_Frequency,Hit 
1497603615.0,286047051.9,N
1497603615.9,286047051.9,N
1497603635.8,286047051.6,N
1497603655.6,286047051.6,N
1497603675.4,286047052.1,N
1497603695.3,286047052.0,N
1497603715.1,286047049.5,N
1497603716.0,286047049.5,N
1497603735.8,286047050.8,N
1497603755.6,286047050.5,N
1497603775.5,286047052.2,N
1497603795.3,286047050.7,N
1497603815.1,286047048.4,N
1497603835.9,286047048.3,N
1497603855.7,286047050.4,N
1497603875.5,286047048.2,N
1497603895.4,286047047.7,N
1497603915.2,286047049.8,N
1497603935.0,286047053.9,N
1497603935.9,286047053.9,N
1497603955.8,286047051.9,N
1497603975.6,286047051.6,N
1497603995.4,286047051.3,N
1497604015.3,286047051.9,N
1497604035.1,286047051.1,N
1497604036.0,286047051.1,N
1497604055.8,286047051.4,N
1497604075.7,286047051.9,N
1497604095.5,286047050.9,N
1497604115.3,286047051.7,N
1497604135.1,286047053.4,N
1497604155.9,286047052.5,N
1497604175.7,286047051.0,N
1497604195.5,286047053.0,N
1497604215.4,286047051.9,N
1497604235.2,286047050.5,N
1497604255.0,286047046.2,N
1497604255.9,286047046.2,N
1497604275.8,286047044.9,N
1497604295.6,286047047.5,N
1497604315.4,286047047.0,N
1497604335.3,286047044.8,N
1497604355.1,286047044.9,N
1497604356.0,286047044.9,N
1497604375.8,286047047.4,N
1497604395.7,286047045.3,N
1497604415.5,286047045.0,N
1497604435.3,286047049.0,N
1497604455.1,286047048.7,N
1497604475.9,286047048.4,N
1497604495.7,286047049.1,N
1497604515.5,286047047.0,N
1497604535.4,286047046.8,N
1497604555.2,286047047.3,N
1497604575.0,286047046.3,N
1497604575.9,286047046.3,N
1497604595.8,286047050.6,N
1497604615.6,286047050.6,N
1497604635.4,286047050.4,N
1497604655.3,286047050.7,N
1497604675.1,286047048.9,N
1497604676.0,286047048.9,N
1497604695.8,286047047.1,N
1497604715.7,286047046.2,N
1497604735.5,286047044.6,N
1497604755.3,286047048.5,N
1497604775.2,286047046.5,N
1497604795.9,286047049.2,N
1497604815.7,286047048.5,N
1497604835.5,286047046.5,N
1497604855.4,286047046.1,N
1497604875.2,286047048.6,N
1497604895.0,286047046.4,N
1497604895.9,286047046.4,N
1497604915.8,286047044.8,N
1497604935.6,286047045.2,N
1497604955.4,286047046.5,N
1497604975.3,286047047.0,N
1497604995.1,286047047.4,N
1497604996.0,286047047.4,N
1497605015.8,286047048.5,N
1497605035.7,286047043.1,N
1497605055.5,286047045.8,N
1497605075.3,286047043.0,N
1497605095.2,286047044.3,N
1497605115.9,286047045.3,N
1497605135.7,286047043.9,N
1497605155.6,286047042.8,N
1497605175.4,286047039.9,N
1497605195.2,286047041.1,N
1497605215.0,286047041.3,N
1497605215.9,286047041.3,N
1497605235.8,286047043.4,N
1497605255.6,286047045.0,N
1497605275.4,286047044.0,N
1497605295.3,286047041.6,N
1497605315.1,286047042.7,N
1497605335.8,286047041.6,N
1497605355.7,286047041.7,N
1497605375.5,286047041.0,N
1497605395.3,286047040.7,N
1497605415.2,286047038.3,N
1497605435.9,286047037.0,N
1497605455.7,286047037.1,N
1497605475.6,286047037.8,N
1497605495.4,286047037.5,N
1497605515.2,286047037.5,N
1497605535.0,286047037.5,N
1497605536.0,286047037.5,N
1497605555.8,286047037.2,N
1497605575.6,286047036.8,N
1497605595.4,286047037.8,N
1497605615.3,286047036.6,N
1497605635.1,286047034.9,N
1497605655.8,286047035.1,N
1497605675.7,286047035.0,N
1497605695.5,286047035.8,N
1497605715.3,286047035.4,N
1497605735.2,286047036.1,N
1497605755.9,286047036.3,N
1497605775.7,286047033.7,N
1497605795.6,286047036.3,N
1497605815.4,286047033.7,N
1497605835.2,286047036.3,N
1497605855.1,286047036.3,N
1497605856.0,286047036.3,N
1497605875.8,286047035.8,N
1497605895.6,286047035.9,N
1497605915.4,286047035.0,N
1497605935.3,286047037.2,N
1497605955.1,286047036.7,N
1497605975.8,286047037.8,N
1497605995.7,286047039.4,N
1497606015.5,286047038.3,N
1497606035.3,286047038.4,N
1497606055.2,286047038.8,N
1497606075.9,286047039.4,N
1497606095.7,286047040.5,N
1497606115.6,286047041.0,N
1497606135.4,286047042.0,N
1497606155.2,286047042.6,N
1497606175.0,286047040.4,N
1497606176.0,286047040.4,N
1497606195.8,286047039.8,N
1497606215.6,286047042.0,N
1497606235.4,286047039.7,N
1497606255.3,286047040.2,N
1497606275.1,286047042.2,N
1497606295.8,286047041.8,N
1497606315.7,286047040.4,N
1497606335.5,286047041.1,N
1497606355.3,286047041.2,N
1497606375.2,286047041.2,N
1497606395.9,286047038.1,N
1497606415.7,286047038.6,N
1497606435.6,286047037.1,N
1497606455.4,286047035.0,N
1497606475.2,286047037.0,N
1497606495.0,286047037.1,N
1497606496.0,286047037.1,N
1497606515.8,286047038.4,N
1497606535.6,286047037.3,N
1497606555.4,286047036.9,N
1497606575.3,286047039.1,N
1497606595.1,286047038.3,N
1497606615.8,286047038.9,N
1497606635.7,286047040.7,Y
1497606655.5,286046995.3,N
1497606675.3,286046995.5,N
1497606695.2,286046997.4,N
1497606715.9,286046994.9,N
1497606735.7,286046998.3,N
1497606755.6,286046999.4,N
1497606775.4,286046999.4,N
1497606795.2,286046996.5,N
1497606815.1,286046997.3,N
1497606816.0,286046997.3,N
1497606835.8,286046997.7,N
1497606855.6,286046996.7,N
1497606875.5,286046997.8,N
1497606895.3,286046996.6,N
1497606915.1,286047000.0,N
1497606935.8,286047000.7,N
1497606955.7,286047001.0,N
1497606975.5,286046998.8,N
1497606995.3,286046998.4,N
1497607015.2,286046998.7,N
1497607035.9,286046998.1,N
1497607055.7,286047000.0,N
1497607075.6,286047000.7,N
1497607095.4,286046998.5,N
1497607115.2,286046998.7,N
1497607135.1,286046998.8,N
1497607136.0,286046998.8,N
1497607155.8,286047000.6,N
1497607175.6,286047002.4,N
1497607195.5,286047000.2,N
